[[{"header":{"parameterUnit":"m.s-1","parameterCategory":1,"la1":30.2991,"la2":30.254,"lo1":-89.0895,"lo2":-89.0444,"dy":0.0017,"dx":0.0017,"nx":28,"ny":28,"refTime":"2025-08-22T09:00:00:Z","depth":0,"parameterNumber":2,"parameterNumberName":"U-component_of_WINDS"},"data":[0,0,0,0,0,0,0,0,0,0,0,0,0,0,0,0,0,0,0,0,0,0,0,0,0,0,0,0,0,0,0,0,0,0,0,0,0,0,0,0,0,0,0,0,0,0,0,0,0,0,0,0,0,0,0,0,0,0,-0.9001,-0.9002,0,-0.9028,-0.9028,-0.9029,-0.8989,-0.8988,-0.8986,-0.8985,-0.9015,-0.9017,-0.902,0,0,0,0,0,0,0,0,0,0,0,0,0,-0.8919,-0.892,-0.9001,-0.9002,-0.9002,-0.9028,-0.9028,-0.9029,-0.8989,-0.8988,-0.8986,-0.8984,-0.9015,-0.9017,-0.902,0,0,0,0,0,0,0,0,0,0,0,0,0,-0.8951,-0.8921,-0.9001,-0.8985,-0.8984,-0.9028,-0.9028,-0.9029,-0.899,-0.8988,-0.8986,-0.8984,-0.9014,-0.9017,-0.902,-0.9081,0,0,-0.903,-0.9031,0,0,0,0,0,0,0,0,-0.8949,-0.8954,-0.8987,-0.8987,-0.8985,-0.9003,-0.901,-0.9047,-0.899,-0.8988,-0.8985,-0.8983,-0.9013,-0.9016,-0.9026,-0.9083,-0.9084,-0.903,-0.9032,-0.9033,-0.9034,0,0,0,0,0,0,0,-0.8947,-0.8953,-0.9012,-0.8988,-0.8987,-0.8978,-0.898,-0.9017,-0.9012,-0.8988,-0.8985,-0.8989,-0.9012,-0.9023,-0.9026,-0.9085,-0.903,-0.9033,-0.9035,-0.9036,-0.9192,-0.9195,0,0,0,0,0,0,-0.8946,-0.8951,-0.9011,-0.9013,-0.8962,-0.8981,-0.8983,-0.9,-0.9011,-0.9011,-0.899,-0.8987,-0.9019,-0.9023,-0.9027,-0.91,-0.9033,-0.9036,-0.9038,-0.919,-0.9193,-0.9195,0,0,0,0,0,0,-0.8945,-0.8952,-0.901,-0.8981,-0.8988,-0.8985,-0.9003,-0.9001,-0.9012,-0.9013,-0.9012,-0.9002,-0.9017,-0.9023,-0.9068,-0.91,-0.9038,-0.9041,-0.9188,-0.9191,-0.9194,-0.9245,0,0,0,0,0,0,-0.8943,-0.8952,-0.8975,-0.8982,-0.899,-0.905,-0.9005,-0.9003,-0.9017,-0.9012,-0.9024,-0.9024,-0.9016,-0.9063,-0.9071,-0.9103,-0.9043,-0.9185,-0.9189,-0.9193,-0.9241,-0.925,-0.9258,0,0,0,0,0,-0.894,-0.8989,-0.8976,-0.8983,-0.9018,-0.9052,-0.9056,-0.9045,-0.902,-0.9043,-0.9044,-0.9024,-0.9095,-0.9068,-0.9077,-0.9111,-0.9183,-0.9188,-0.9193,-0.9237,-0.9248,-0.9258,0,0,0,0,0,0,-0.8987,-0.899,-0.8975,-0.9028,-0.904,-0.9045,-0.9074,-0.9057,-0.9077,-0.9072,-0.9058,-0.9061,-0.911,-0.9114,-0.9084,-0.917,-0.9135,-0.9142,-0.9165,-0.9176,-0.9185,-0.9183,-0.9046,0,0,0,0,0,-0.9003,-0.9029,-0.9031,-0.9077,-0.9083,-0.9078,-0.9092,-0.9082,-0.9094,-0.9099,-0.9103,-0.9117,-0.9142,-0.9159,-0.9183,-0.9241,-0.9243,-0.9268,-0.9276,-0.9284,-0.929,-0.9321,-0.9332,-0.9212,-0.9212,-0.9212,0,0,-0.9038,-0.9042,-0.906,-0.9087,-0.9095,-0.9123,-0.9082,-0.9114,-0.9135,-0.9105,-0.9147,-0.915,-0.9164,-0.9216,-0.9239,-0.9221,-0.9323,-0.929,-0.9296,-0.9298,-0.9327,-0.9339,-0.9349,-0.9216,-0.9215,-0.9214,0,0,-0.9115,-0.9121,-0.916,-0.9168,-0.918,-0.9176,-0.9185,-0.9192,-0.9193,-0.9235,-0.9213,-0.9238,-0.9282,-0.9292,-0.9303,-0.9383,-0.9365,-0.9391,-0.9437,-0.9467,-0.9476,-0.9485,-0.9513,-0.9524,-0.9397,-0.9397,-0.9398,0,-0.9157,-0.9198,-0.9183,-0.9216,-0.9228,-0.92,-0.924,-0.9249,-0.9268,-0.9278,-0.9257,-0.9311,-0.9319,-0.9372,-0.9391,-0.9401,-0.9412,-0.939,-0.9476,-0.9484,-0.9492,-0.9519,-0.953,-0.9401,-0.94,-0.94,-0.94,0,-0.9248,-0.9277,-0.9307,-0.9325,-0.9341,-0.9377,-0.9368,-0.9386,-0.9374,-0.9372,-0.9415,-0.9423,-0.9447,-0.9459,-0.9448,-0.9511,-0.95,-0.9478,-0.9442,-0.9506,-0.9532,-0.9542,-0.9405,-0.9404,-0.9403,-0.9402,0,0,-0.9358,-0.9366,-0.9377,-0.9385,-0.9395,-0.9417,-0.9452,-0.9474,-0.949,-0.9504,-0.9534,-0.957,-0.955,-0.9563,-0.9553,-0.9579,-0.9642,-0.9554,-0.9554,-0.9571,-0.9712,-0.9729,-0.9741,-0.963,-0.9632,-0.9633,-0.9711,0,-0.9435,-0.9495,-0.9481,-0.954,-0.9567,-0.9539,-0.957,-0.958,-0.9578,-0.9601,-0.9599,-0.9626,-0.9597,-0.9604,-0.9629,-0.9629,-0.967,-0.9623,-0.9658,-0.9659,-0.9656,-0.9754,-0.9772,-0.9845,-0.972,-0.9722,-0.9723,0,-0.9534,-0.955,-0.9611,-0.9616,-0.9627,-0.9654,-0.9673,-0.9695,-0.9705,-0.9703,-0.9716,-0.9701,-0.9736,-0.9699,-0.9747,-0.9715,-0.9728,-0.9731,-0.9733,-0.9737,-0.9696,-0.9761,-0.9868,-0.9879,-0.9739,-0.9737,-0.9736,0,-0.9608,-0.9645,-0.9686,-0.9694,-0.9701,-0.972,-0.9724,-0.9733,-0.9747,-0.9763,-0.9772,-0.9793,-0.9805,-0.9822,-0.9813,-0.9787,-0.9863,-0.9825,-0.9863,-0.9863,-0.9881,-0.988,-0.9992,-0.9888,-0.9888,-0.9888,-0.9887,0,-0.9697,-0.9735,-0.972,-0.9745,-0.9788,-0.9772,-0.9814,-0.9815,-0.9823,-0.9848,-0.9826,-0.985,-0.9837,-0.986,-0.9853,-0.9895,-0.99,-0.9899,-0.9897,-0.9902,-0.9902,-0.9911,-0.9906,-0.9891,-0.989,-0.9889,-0.9889,0,-0.9788,-0.9779,-0.9822,-0.9824,-0.9825,-0.9856,-0.9859,-0.9883,-0.9879,-0.9911,-0.9918,-0.9912,-0.9939,-0.9931,-0.996,-0.9956,-1.0008,-0.9999,-1.0004,-1.0002,-1.004,-1.0037,-1.0162,-1.0178,-1.0063,-1.0064,-1.0065,0,-0.9845,-0.9874,-0.9879,-0.9893,-0.9899,-0.9923,-0.9936,-0.9922,-0.9937,-0.995,-0.9973,-0.9997,-1.0016,-1.0059,-1.0059,-1.0081,-1.0073,-1.0115,-1.0076,-1.0079,-1.0074,-1.0073,-1.0075,-1.0123,-1.0125,-1.0126,-1.0127,0,-0.9948,-0.9942,-0.9962,-0.998,-0.9996,-1.001,-1.0023,-1.0036,-1.0022,-1.0041,-1.0067,-1.0081,-1.011,-1.0134,-1.0154,-1.0159,-1.0141,-1.0139,-1.0148,-1.0154,-1.0156,-1.0156,-1.0026,-1.0136,-1.0135,-1.0135,-1.0134,-1.0134,-1.0025,-1.0049,-1.0055,-1.0078,-1.0085,-1.0096,-1.0119,-1.0117,-1.0138,-1.0159,-1.0149,-1.018,-1.0189,-1.0213,-1.022,-1.0244,-1.0228,-1.0242,-1.0246,-1.025,-1.0255,-1.0151,-1.0248,-1.0247,-1.0247,-1.0247,-1.0247,0,-1.0127,-1.0129,-1.015,-1.0167,-1.0185,-1.0164,-1.0176,-1.0193,-1.0219,-1.0229,-1.0247,-1.0277,-1.03,-1.03,-1.0322,-1.0341,-1.0333,-1.0347,-1.0346,-1.0348,-1.0268,-1.0257,-1.0353,-1.0353,-1.0353,-1.0353,-1.0353,-1.0353,-1.0182,-1.0222,-1.0216,-1.0259,-1.0261,-1.0289,-1.0298,-1.0308,-1.0315,-1.0349,-1.0368,-1.0367,-1.0373,-1.0395,-1.0415,-1.0415,-1.0424,-1.0441,-1.0438,-1.0364,-1.0353,-1.0343,-1.0333,-1.0443,-1.0444,-1.0516,-1.0516,-1.0517]},{"header":{"parameterUnit":"m.s-1","parameterCategory":1,"la1":30.2991,"la2":30.254,"lo1":-89.0895,"lo2":-89.0444,"dy":0.0017,"dx":0.0017,"nx":28,"ny":28,"refTime":"2025-08-22T09:00:00:Z","depth":0,"parameterNumber":3,"parameterNumberName":"V-component_of_WINDS"},"data":[0,0,0,0,0,0,0,0,0,0,0,0,0,0,0,0,0,0,0,0,0,0,0,0,0,0,0,0,0,0,0,0,0,0,0,0,0,0,0,0,0,0,0,0,0,0,0,0,0,0,0,0,0,0,0,0,0,0,-1.7942,-1.7942,0,-1.7942,-1.7942,-1.7942,-1.7907,-1.7906,-1.7905,-1.7904,-1.7904,-1.7904,-1.7905,0,0,0,0,0,0,0,0,0,0,0,0,0,-1.7914,-1.7914,-1.7942,-1.7942,-1.7942,-1.7942,-1.7942,-1.7942,-1.7907,-1.7906,-1.7905,-1.7904,-1.7903,-1.7904,-1.7905,0,0,0,0,0,0,0,0,0,0,0,0,0,-1.7921,-1.7915,-1.7942,-1.7925,-1.7924,-1.7942,-1.7942,-1.7942,-1.7907,-1.7906,-1.7905,-1.7903,-1.7903,-1.7904,-1.7905,-1.794,0,0,-1.7909,-1.791,0,0,0,0,0,0,0,0,-1.7921,-1.7922,-1.7928,-1.7926,-1.7925,-1.7923,-1.7931,-1.7941,-1.7908,-1.7914,-1.7904,-1.7903,-1.7911,-1.7912,-1.7914,-1.794,-1.794,-1.7909,-1.791,-1.7911,-1.7911,0,0,0,0,0,0,0,-1.792,-1.7922,-1.7942,-1.7928,-1.7926,-1.7917,-1.7917,-1.7933,-1.792,-1.7913,-1.791,-1.7911,-1.791,-1.7913,-1.7914,-1.794,-1.7909,-1.791,-1.7911,-1.7912,-1.7993,-1.7995,0,0,0,0,0,0,-1.7922,-1.7922,-1.7942,-1.7942,-1.7919,-1.7919,-1.7918,-1.7925,-1.792,-1.7918,-1.7912,-1.7909,-1.7912,-1.7913,-1.7914,-1.7953,-1.7911,-1.7912,-1.7912,-1.7992,-1.7994,-1.7995,0,0,0,0,0,0,-1.7921,-1.7924,-1.7942,-1.7931,-1.7933,-1.7921,-1.7929,-1.7926,-1.7929,-1.7919,-1.7916,-1.7918,-1.7911,-1.7912,-1.7934,-1.7953,-1.7912,-1.7913,-1.799,-1.7992,-1.7994,-1.8033,0,0,0,0,0,0,-1.7921,-1.7924,-1.7937,-1.7932,-1.7934,-1.7962,-1.793,-1.7927,-1.7931,-1.7927,-1.7924,-1.7922,-1.791,-1.7932,-1.7935,-1.7954,-1.7914,-1.7988,-1.7991,-1.7994,-1.803,-1.8036,-1.8042,0,0,0,0,0,-1.792,-1.7948,-1.7938,-1.7941,-1.795,-1.7963,-1.7964,-1.795,-1.7933,-1.7946,-1.7939,-1.7922,-1.7951,-1.7935,-1.7937,-1.7957,-1.7987,-1.799,-1.7993,-1.8027,-1.8035,-1.8042,0,0,0,0,0,0,-1.7957,-1.7947,-1.7936,-1.7964,-1.7964,-1.7957,-1.7973,-1.7959,-1.7965,-1.7961,-1.7943,-1.7943,-1.7967,-1.7964,-1.7946,-1.799,-1.7966,-1.797,-1.7991,-1.7998,-1.8003,-1.8003,-1.7915,0,0,0,0,0,-1.7968,-1.798,-1.7971,-1.7996,-1.7997,-1.7985,-1.7991,-1.798,-1.798,-1.798,-1.7975,-1.7976,-1.7985,-1.7992,-1.7999,-1.803,-1.8028,-1.8045,-1.8051,-1.8056,-1.8059,-1.8074,-1.8081,-1.8006,-1.8006,-1.8006,0,0,-1.7992,-1.7988,-1.7996,-1.8004,-1.8003,-1.8015,-1.7986,-1.8,-1.8009,-1.7982,-1.8002,-1.7998,-1.7998,-1.8024,-1.8035,-1.8023,-1.8079,-1.806,-1.8064,-1.8064,-1.8078,-1.8085,-1.8091,-1.8008,-1.8007,-1.8007,0,0,-1.804,-1.8039,-1.8059,-1.8059,-1.8059,-1.8051,-1.8056,-1.8051,-1.8047,-1.8067,-1.8047,-1.8057,-1.8073,-1.8074,-1.8076,-1.8125,-1.8109,-1.8128,-1.8158,-1.8173,-1.8179,-1.8184,-1.82,-1.8206,-1.8132,-1.8132,-1.8132,0,-1.8069,-1.8087,-1.8072,-1.8087,-1.8091,-1.8067,-1.8087,-1.8088,-1.809,-1.8093,-1.8079,-1.8099,-1.8097,-1.8122,-1.8134,-1.8137,-1.8142,-1.8128,-1.8179,-1.8184,-1.8189,-1.8204,-1.821,-1.8134,-1.8134,-1.8134,-1.8133,0,-1.8122,-1.8135,-1.8152,-1.8154,-1.8159,-1.8177,-1.8164,-1.8172,-1.8161,-1.8154,-1.8174,-1.8171,-1.8177,-1.8183,-1.8172,-1.8206,-1.8198,-1.8182,-1.8157,-1.8198,-1.8212,-1.8218,-1.8137,-1.8136,-1.8136,-1.8135,0,0,-1.8193,-1.8187,-1.8193,-1.8194,-1.8191,-1.8201,-1.8217,-1.8224,-1.823,-1.8232,-1.8245,-1.826,-1.8245,-1.8247,-1.8237,-1.825,-1.8287,-1.8232,-1.8232,-1.8241,-1.8324,-1.8335,-1.8342,-1.8277,-1.8278,-1.8279,-1.8323,0,-1.824,-1.8267,-1.8254,-1.8283,-1.8294,-1.8272,-1.8287,-1.8287,-1.8281,-1.8289,-1.8283,-1.8293,-1.8273,-1.8274,-1.8287,-1.828,-1.8304,-1.8277,-1.8288,-1.8289,-1.8288,-1.835,-1.8361,-1.8403,-1.8329,-1.833,-1.8331,0,-1.8297,-1.8301,-1.8331,-1.8326,-1.8331,-1.8344,-1.8348,-1.8357,-1.8356,-1.8351,-1.8354,-1.834,-1.8356,-1.8332,-1.8353,-1.8336,-1.834,-1.8337,-1.8339,-1.8338,-1.8311,-1.8349,-1.8416,-1.8422,-1.8339,-1.8339,-1.8338,0,-1.8344,-1.8358,-1.8377,-1.8378,-1.8373,-1.8383,-1.8381,-1.838,-1.8384,-1.8388,-1.8391,-1.8397,-1.84,-1.8405,-1.8393,-1.8377,-1.8415,-1.8391,-1.8411,-1.8411,-1.8419,-1.8418,-1.8486,-1.8424,-1.8424,-1.8423,-1.8423,0,-1.8396,-1.8415,-1.8398,-1.841,-1.8431,-1.8416,-1.8436,-1.8432,-1.8431,-1.8442,-1.8423,-1.8434,-1.8418,-1.8427,-1.8418,-1.8436,-1.8438,-1.8434,-1.8431,-1.8434,-1.8435,-1.8436,-1.8432,-1.8425,-1.8425,-1.8424,-1.8424,0,-1.8452,-1.8441,-1.8461,-1.8455,-1.8453,-1.8469,-1.8463,-1.8474,-1.8467,-1.8481,-1.8483,-1.8472,-1.8482,-1.847,-1.8479,-1.8473,-1.8497,-1.8491,-1.8497,-1.8495,-1.8515,-1.8513,-1.8585,-1.8593,-1.8527,-1.8528,-1.8528,0,-1.8485,-1.8499,-1.8494,-1.85,-1.8499,-1.8509,-1.8513,-1.8499,-1.8504,-1.8504,-1.8515,-1.8523,-1.8528,-1.8544,-1.8537,-1.8543,-1.8536,-1.8561,-1.8536,-1.854,-1.8534,-1.8533,-1.8534,-1.8565,-1.8566,-1.8566,-1.8567,0,-1.8545,-1.8539,-1.8545,-1.855,-1.8556,-1.8559,-1.8561,-1.8567,-1.8552,-1.8559,-1.8568,-1.8572,-1.8581,-1.8588,-1.8593,-1.8591,-1.8576,-1.8575,-1.8579,-1.8583,-1.8585,-1.8583,-1.8509,-1.8573,-1.8572,-1.8572,-1.8571,-1.8571,-1.8589,-1.86,-1.8598,-1.8606,-1.8606,-1.8608,-1.8618,-1.8612,-1.8619,-1.8625,-1.8616,-1.8627,-1.8626,-1.8631,-1.8631,-1.8639,-1.8628,-1.8636,-1.8637,-1.8639,-1.8641,-1.8585,-1.864,-1.864,-1.864,-1.864,-1.8639,0,-1.8646,-1.8644,-1.8652,-1.8655,-1.8661,-1.8647,-1.8648,-1.8655,-1.8665,-1.8665,-1.867,-1.8681,-1.8688,-1.8682,-1.8688,-1.8696,-1.8689,-1.8698,-1.8696,-1.8696,-1.8651,-1.8646,-1.8703,-1.8703,-1.8703,-1.8703,-1.8703,-1.8703,-1.8677,-1.8695,-1.8688,-1.8706,-1.8703,-1.8714,-1.8716,-1.8718,-1.8717,-1.873,-1.8736,-1.8731,-1.8729,-1.8735,-1.8741,-1.8739,-1.8741,-1.8752,-1.8747,-1.8705,-1.8699,-1.8693,-1.8688,-1.8753,-1.8753,-1.8791,-1.8791,-1.8792]}]]